Location: Cz?stochówka
(50.8142°N, 19.0915°E)
Time: 05:29:20
(UTC+00:00)

Cosmos 1666 Rocket - Visible Passes

Search period start: 19 April 2026 00:00
Search period end: 29 April 2026 00:00
Orbit: 597 x 625 km, 82.5° (Epoch: 18 April)

Date Brightness Start Highest point End Pass type
(mag) Time Alt. Az. Time Alt. Az. Time Alt. Az.
21 Apr 6.9 02:14:43 10° NNE 02:17:10 14° ENE 02:19:36 10° E visible
22 Apr 6.5 02:28:49 10° NNE 02:32:15 22° ENE 02:35:41 10° ESE visible
23 Apr 5.6 02:43:14 10° N 02:47:16 33° ENE 02:51:17 10° SE visible
25 Apr 6.9 01:36:41 10° NE 01:38:36 13° ENE 01:40:31 10° E visible
26 Apr 6.5 01:50:32 10° NNE 01:53:43 19° ENE 01:56:53 10° ESE visible
27 Apr 5.8 02:04:53 10° N 02:08:45 29° ENE 02:12:37 10° SE visible
28 Apr 4.9 02:19:26 10° N 02:23:42 45° ENE 02:27:58 10° SSE visible
